Location: Unspecified
(47.9110°N, 14.3980°E)
Time: 06:12:12
(UTC+00:00)

Cosmos 540 Rocket - Pass Details

Date: 06 August 2020
Orbit: 740 x 754 km, 74.1° (Epoch: 23 September)

Event Time Altitude Azimuth Distance (km) Brightness Sun altitude
Rises 21:20:05 0° 341° (NNW) 3,209 8.2 -21.3°
Reaches altitude 10° 21:22:34 10° 348° (NNW) 2,283 7.0 -21.5°
Maximum altitude 21:27:31 44° 60° (ENE) 1,040 4.1 -21.9°
Enters shadow 21:28:54 36° 100° (E) 1,186 4.2 -22.0°
